Andover, NJ

10:04 PM EDT on March 22, 2017 (GMT -0400)
Andover

Weather History for K12N - June, 2014

Change the Weather History Date:

Wednesday, June 4, 2014

  Actual Average (KFWN) Record (KFWN)
Temperature  
Mean Temperature 72 °F -  
Max Temperature 82 °F 74 °F 86 °F (1952)
Min Temperature 64 °F 49 °F 38 °F (1965)
Cooling Degree Days 7    
Growing Degree Days 22 (Base 50)    
Moisture  
Dew Point 57 °F    
Average Humidity 67    
Maximum Humidity 100    
Minimum Humidity 30    
Precipitation  
Precipitation 0.00 in - - ()
Sea Level Pressure  
Sea Level Pressure 29.80 in    
Wind  
Wind Speed 2 mph (NNW)    
Max Wind Speed 6 mph    
Max Gust Speed -    
Averages and records for this station are not official NWS values.
T = Trace of Precipitation, MM = Missing Value Source: NWS Daily Summary

Daily Weather History Graph

Daily Weather History Graph

Search for Another Location

Airport or City:

Trip Planner

Search our weather history database for the weather conditions in past years. The results will help you decide how hot, cold, wet, or windy it might be!

Date:

Astronomy

Jun. 04, 2014 Rise Set
Actual Time 5:27 AM EDT 8:27 PM EDT
Civil Twilight 4:54 AM EDT 9:00 PM EDT
Nautical Twilight 4:12 AM EDT 9:42 PM EDT
Astronomical Twilight 3:23 AM EDT 10:31 PM EDT
Moon 11:47 AM EDT (6/4) 12:22 AM EDT (6/4)
Length of Visible Light 16h 05m
Length of Day
14h 59m
Waxing Crescent, 39% of the Moon is Illuminated
Jun 4
Waxing Crescent
Jun 5
First Quarter
Jun 13
Full
Jun 19
Last Quarter
Jun 27
New

Hourly Weather History & Observations

Time (EDT) Temp. Dew Point Humidity Pressure Visibility Wind Dir Wind Speed Gust Speed Precip Events Conditions
12:54 AM 66.9 °F 66.0 °F 97% 29.81 in - Calm Calm - N/A   Unknown
1:54 AM 66.0 °F 66.0 °F 100% 29.80 in - Calm Calm - N/A   Unknown
2:54 AM 64.9 °F 64.0 °F 97% 29.80 in - Calm Calm - N/A   Unknown
3:54 AM 64.9 °F 64.9 °F 100% 29.80 in - Calm Calm - N/A   Unknown
4:54 AM 66.0 °F 66.0 °F 100% 29.83 in - Calm Calm - N/A   Unknown
5:54 AM 64.0 °F 62.1 °F 93% 29.84 in - Variable 3.5 mph - N/A   Unknown
6:54 AM 66.0 °F 60.1 °F 81% 29.85 in - Variable 5.8 mph - N/A   Unknown
7:54 AM 68.0 °F 57.9 °F 70% 29.85 in - North 5.8 mph - N/A   Unknown
8:54 AM 70.0 °F 57.0 °F 63% 29.86 in - Variable 5.8 mph - N/A   Unknown
9:54 AM 73.0 °F 55.9 °F 55% 29.85 in - Variable 3.5 mph - N/A   Unknown
10:54 AM 75.0 °F 54.0 °F 48% 29.83 in - West 5.8 mph - N/A   Unknown
11:54 AM 77.0 °F 55.9 °F 48% 29.83 in - Variable 3.5 mph - N/A   Unknown
12:54 PM 79.0 °F 55.9 °F 45% 29.81 in - Variable 4.6 mph - N/A   Unknown
1:54 PM 80.1 °F 52.0 °F 38% 29.78 in - Calm Calm - N/A   Unknown
2:54 PM 80.1 °F 50.0 °F 35% 29.77 in - Variable 4.6 mph - N/A   Unknown
3:54 PM 80.1 °F 46.0 °F 30% 29.76 in - Calm Calm - N/A   Unknown
4:54 PM 79.0 °F 51.1 °F 38% 29.75 in - Calm Calm - N/A   Unknown
5:54 PM 75.9 °F 53.1 °F 45% 29.75 in - North 3.5 mph - N/A   Unknown
6:54 PM 73.9 °F 51.1 °F 45% 29.76 in - Variable 3.5 mph - N/A   Unknown
7:54 PM 70.0 °F 55.0 °F 59% 29.76 in - Calm Calm - N/A   Unknown
8:54 PM 66.9 °F 55.0 °F 66% 29.77 in - Calm Calm - N/A   Unknown
9:54 PM 66.0 °F 57.9 °F 75% 29.78 in - Calm Calm - N/A   Unknown
10:54 PM 64.0 °F 59.0 °F 84% 29.78 in - Calm Calm - N/A   Unknown
11:54 PM 64.0 °F 59.0 °F 84% 29.75 in - Calm Calm - N/A   Unknown